Location: Hillsman's Observatory
(38.8566°N, 93.9398°W)
Time: 06:18:09
(UTC-06:00)

N. Korean satellite - Visible Passes

Search period start: 24 February 2018 00:00
Search period end: 06 March 2018 00:00
Orbit: 459 x 514 km, 97.2° (Epoch: 23 February)

Date Brightness Start Highest point End Pass type
(mag) Time Alt. Az. Time Alt. Az. Time Alt. Az.
24 Feb 10.1 06:02:41 10° NE 06:05:09 17° E 06:07:38 10° SE visible
26 Feb 9.6 18:56:45 10° SW 18:59:24 20° W 19:02:04 10° NW visible
27 Feb 8.0 18:32:13 10° S 18:35:32 42° W 18:38:54 10° NNW visible
28 Feb 10.1 06:01:11 10° NE 06:03:38 16° E 06:06:03 10° SE visible
01 Mar 10.5 19:20:58 10° WSW 19:21:44 11° W 19:22:31 10° WNW visible
02 Mar 9.5 18:55:04 10° SSW 18:57:48 21° W 19:00:34 10° NW visible
04 Mar 10.2 05:59:41 10° NE 06:02:03 16° E 06:04:26 10° SE visible
05 Mar 10.4 19:19:00 10° WSW 19:20:07 11° W 19:21:15 10° WNW visible
